FW7275 Weather Reports


time (UTC)temp
F
wind
direction
speed
knots
gust
knots
rain 1hr
in
rain 24hr
in
rain mn
in
humidity
%
barometer
mb
20200924083018 63 225 0.9 3.5 0.00 0.00 3.06 88
20200924082018 62 225 0.9 3.5 0.00 0.00 3.06 88
20200924081017 62 135 0.9 5.2 0.00 0.00 3.06 89
20200924080022 62 135 0.9 3.5 0.00 0.00 3.06 89
20200924075018 60 113 0.0 2.6 0.00 0.00 3.06 91
20200924074015 60 135 0.0 0.9 0.00 0.00 3.06 91
20200924072017 59 180 0.9 3.5 0.00 0.00 3.06 91
20200924071017 59 248 0.0 2.6 0.00 0.00 3.06 91
20200924070029 59 248 0.9 2.6 0.00 0.00 3.06 91
20200924062015 56 113 0.9 2.6 0.00 0.00 3.06 96
20200924061017 54 293 0.0 1.7 0.00 0.00 3.06 95
20200924060032 54 135 0.0 1.7 0.00 0.00 3.06 95
20200924055016 53 248 0.0 1.7 0.00 0.00 3.06 97
20200924053021 51 270 0.0 1.7 0.00 0.00 3.06 97
20200924050033 50 90 0.0 1.7 0.00 0.00 3.06 97
20200924044014 50 90 0.0 0.9 0.00 0.00 3.06 97
20200924035016 51 90 0.0 0.9 0.00 0.00 3.06 97
20200924034014 51 90 0.0 1.7 0.00 0.00 3.06 97
20200924033019 51 113 0.0 2.6 0.00 0.00 3.06 96
20200924032016 51 113 0.0 1.7 0.00 0.00 3.06 96
20200923223023 54 135 0.0 1.7 0.00 0.00 3.06 95
20200923214019 55 135 0.0 1.7 0.00 0.00 3.06 94
20200923201015 58 225 0.0 1.7 0.00 0.00 3.06 91
20200923192020 59 225 0.0 1.7 0.00 0.00 3.06 91
20200923191015 59 225 0.0 0.9 0.00 0.00 3.06 91
20200923182015 61 225 0.0 1.7 0.00 0.00 3.06 90
20200923181019 61 248 0.0 0.9 0.00 0.00 3.06 90
20200923180034 61 248 0.9 3.5 0.00 0.00 3.06 91
20200923175014 61 248 0.9 3.5 0.00 0.00 3.06 91
20200923174019 62 225 1.7 6.1 0.00 0.00 3.06 91
20200923173029 62 225 0.9 6.1 0.00 0.00 3.06 91
20200923172015 62 248 0.0 1.7 0.00 0.00 3.06 92
20200923155021 67 315 0.0 0.9 0.00 0.00 3.06 82
20200923154020 67 315 0.9 2.6 0.00 0.00 3.06 81
20200923153023 67 315 0.9 2.6 0.00 0.00 3.06 82
20200923152016 67 135 0.9 2.6 0.00 0.00 3.06 83
20200923151018 67 135 0.0 2.6 0.00 0.00 3.06 83
20200923150030 67 248 0.9 3.5 0.00 0.00 3.06 84
20200923145016 66 338 0.9 2.6 0.00 0.00 3.06 84
20200923144021 67 315 0.9 3.5 0.00 0.00 3.06 83
20200923143033 67 248 0.9 4.3 0.00 0.00 3.06 84
20200923142021 66 248 0.9 3.5 0.00 0.00 3.06 85
20200923141014 67 248 0.9 2.6 0.00 0.00 3.06 87
20200923135018 67 225 0.0 1.7 0.00 0.00 3.06 86
20200923134017 66 248 0.0 2.6 0.00 0.00 3.06 87
20200923133030 66 248 0.9 1.7 0.00 0.00 3.06 87
20200923132014 66 248 0.9 3.5 0.00 0.00 3.06 87
20200923131014 66 225 0.9 3.5 0.00 0.00 3.06 88
20200923130037 65 248 0.9 2.6 0.00 0.00 3.06 89
20200923125015 65 248 0.9 2.6 0.00 0.00 3.06 89
20200923124015 64 315 0.9 2.6 0.00 0.00 3.06 91
20200923123019 64 315 0.9 3.5 0.00 0.00 3.06 92
20200923122016 64 315 0.9 2.6 0.00 0.00 3.06 92
20200923121020 63 315 0.9 3.5 0.00 0.00 3.06 91
20200923120032 63 225 0.9 1.7 0.00 0.00 3.06 91
20200923115018 63 248 1.7 5.2 0.00 0.00 3.06 91
20200923114025 63 248 0.9 2.6 0.00 0.00 3.06 93
20200923113025 63 225 1.7 6.1 0.00 0.00 3.06 94
20200923112025 63 315 0.9 5.2 0.00 0.00 3.06 94
20200923111017 63 293 1.7 4.3 0.00 0.00 3.06 95
20200923110023 62 315 0.9 4.3 0.00 0.00 3.06 96
20200923105017 62 315 0.9 2.6 0.00 0.00 3.06 96
20200923104014 62 293 0.9 2.6 0.00 0.00 3.06 96
20200923103020 62 293 0.9 3.5 0.00 0.00 3.06 97
20200923102019 62 315 0.9 4.3 0.00 0.00 3.06 97
20200923101019 62 225 0.9 5.2 0.00 0.00 3.06 98
20200923100036 61 248 0.9 2.6 0.00 0.00 3.06 98
20200923095014 61 225 0.0 1.7 0.00 0.00 3.06 98
20200923094019 60 225 0.0 2.6 0.00 0.00 3.06 98
20200923093026 60 248 0.0 1.7 0.00 0.00 3.06 98
20200923092014 59 270 0.9 2.6 0.00 0.00 3.06 98
20200923091021 59 270 0.9 2.6 0.00 0.00 3.06 98
20200923090027 59 270 0.9 2.6 0.00 0.00 3.06 98
20200923085017 59 270 0.9 2.6 0.00 0.00 3.06 98
20200923084014 59 248 0.9 3.5 0.00 0.00 3.05 98